Regional Weather Roundup
Issued by NWS

Home | Current Version | Previous Version | Text Only | Print | Product List | Glossary On
Versions: 1 2 3 4 5 6 7 8 9 10 11 12 13 14 15 16 17 18 19 20 21 22 23 24 25 26 27 28 29 30 31 32 33 34 35 36 37 38 39 40 41 42 43 44 45 46 47 48 49 50
395
ASPQ40 PGUM 181812
RWRPQ
WEATHER ROUNDUP FOR THE MARIANAS AND MICRONESIA
NATIONAL WEATHER SERVICE TIYAN GU
400 AM CHST THU OCT 19 2017

GUZ001>004-181900-
MARIANA ISLANDS-

CITY           SKY/WX    TMP DP  RH WIND       PRES   REMARKS
GUAM AIRPORT   PTCLDY    81  77  89 NW12      29.76S
ANDERSEN AFB   MOCLDY    77  75  94 NW9       29.78R
ROTA AIRPORT   NOT AVBL
TINIAN AP      NOT AVBL
SAIPAN AP      RAIN      81  81 100 W23G39    29.74S FOG     HX  91

$$

PMZ161-181900-
REPUBLIC OF PALAU-

CITY           SKY/WX    TMP DP  RH WIND       PRES   REMARKS
KOROR AP       MOCLDY    82  77  83 S12G20    29.66F HX  91
KOROR WSO      MOCLDY    84  77  79 S17       29.67F HX  94

$$

PMZ171>174-181900-
FEDERATED STATES OF MICRONESIA-

CITY           SKY/WX    TMP DP  RH WIND       PRES   REMARKS
YAP AIRPORT    CLOUDY    84  79  84 S10       29.68F HX  96
CHUUK AP       CLOUDY    82  79  89 N9        29.75F HX  93
POHNPEI AP     NOT AVBL
POHNPEI WSO    LGT RAIN  77  75  94 SE3       29.80S
KOSRAE AP      NOT AVBL

$$

PMZ181-181900-
REPUBLIC OF THE MARSHALL ISLANDS-

CITY           SKY/WX    TMP DP  RH WIND       PRES   REMARKS
KWAJALEIN AP   DRIZZLE   79  77  94 E3        29.80S
MAJURO AP      NOT AVBL
MAJURO WSO     NOT AVBL

$$





USA.gov is the U.S. government's official web portal to all federal, state and local government web resources and services.